Other Public Products
Issued by NWS Charleston, SC

Current Version | Previous Version | Graphics & Text | Print | Product List | Glossary On
Versions: 1 2 3 4 5 6 7 8 9 10 11 12 13 14 15 16 17 18 19 20 21 22 23 24 25 26 27 28 29 30 31 32 33 34 35 36 37 38 39 40 41 42 43 44 45 46 47 48 49 50
227
FPUS82 KCHS 180812
OPUCHS

TEST...KCHS/KSAV Gateway Observations...TEST
National Weather Service Charleston SC
300 AM EST MON DEC 18 2017

NOTE: "fair" indicates few or no clouds below 12,000 feet with no
significant weather and/or obstructions to visibility.

SCZ050-WAZ558-NCZ071-TXZ119-213-PAZ071-DCZ001-FLZ074-172-MI076-
NYZ176-178-MAZ016-IL014-TNZ027-NJZ106-GAZ044-MD014-180900-

...Gateway Observations for Charleston International...

CITY           SKY/WX    TMP DP  RH WIND       PRES   REMARKS
Chas Airport   CLOUDY    58  56  93 SW6       30.18S
Seattle        CLOUDY    49  44  83 S20G25    29.96S HAZE
Charlotte      CLOUDY    50  41  71 CALM      30.17S
Dallas DFW     DRIZZLE   50  48  93 SE3       30.13R FOG
Dallas Love    CLOUDY    49  47  93 SE3       30.14R FOG
Philladelphia  CLOUDY    39  33  79 CALM      30.15S
Wash National  CLOUDY    42  35  76 S3        30.13S
Baltimore      CLOUDY    39  34  82 CALM      30.12S
Miami          CLOUDY    73  70  90 E5        30.19F
Detroit        CLOUDY    39  35  86 SW13      29.99S WCI  31
Newark         LGTSLEET  35  30  82 NE7       30.17F WCI  29
Laguardia      LGT RAIN  35  25  66 E7        30.18F WCI  29
J F K          LGT RAIN  33  27  78 NE7       30.19F WCI  27
Boston Logan   CLOUDY    22   6  50 N5        30.25S WCI  16
Ft. Lauderdale PTCLDY    72  72 100 CALM      30.19S
Chicago O`Hare DRIZZLE   42  38  85 SW10      29.93F FOG
Chicago Midway CLOUDY    43  40  89 SW10      29.94F
Houston Bush   CLOUDY    56  55  97 N3        30.12S
Houston Hobby  CLOUDY    60  59  96 N3        30.11F
Nashville      CLOUDY    47  46  97 S3        30.14F FOG
Atlanta        FOG       47  47 100 CALM      30.17S VSB 1/2

$$

GAZ044-118-TXZ119-213-NCZ071-DCZ001-MDZ014-506-PAZ021-071-NJZ106-
NYZ176-178-MAZ106-OHZ011-021-055-MIZ076-KYZ091-ILZ014-INZ047-
MNZ060-ONZ431-180900-

...Gateway Observations for Savannah International...

CITY           SKY/WX    TMP DP  RH WIND       PRES   REMARKS
Savannah Arpt  MOCLDY    52  50  93 SE3       30.19S
Atlanta        FOG       47  47 100 CALM      30.17S VSB 1/2
Charlotte      CLOUDY    50  41  71 CALM      30.17S
Dallas DFW     DRIZZLE   50  48  93 SE3       30.13R FOG
Houston Bush   CLOUDY    56  55  97 N3        30.12S
Wash National  CLOUDY    42  35  76 S3        30.13S
Wash Dulles    CLOUDY    39  36  89 CALM      30.12S
Baltimore      CLOUDY    39  34  82 CALM      30.12S
Philadelphia   CLOUDY    39  33  79 CALM      30.15S
Newark         LGTSLEET  35  30  82 NE7       30.17F WCI  29
Laguardia      LGT RAIN  35  25  66 E7        30.18F WCI  29
J F K          LGT RAIN  33  27  78 NE7       30.19F WCI  27
Boston         CLOUDY    22   6  50 N5        30.25S WCI  16
Pittsburg      CLOUDY    38  32  79 S3        30.06S
Akron          CLOUDY    37  30  75 SW9       30.05R WCI  30
Cleveland      CLOUDY    39  33  79 SW9       30.06R WCI  33
Cincinnati     CLOUDY    41  41 100 S7        30.09R FOG
Columbus       CLOUDY    37  37  98 S8        30.08S WCI  31
Detroit        CLOUDY    39  35  86 SW13      29.99S WCI  31
Chicago O`Hare DRIZZLE   42  38  85 SW10      29.93F FOG
Minneapolis    CLOUDY    26  26 100 CALM      29.89F FOG
Indianapolis   CLOUDY    41  39  93 SW8       30.06R FOG
Toronto Canada CLOUDY    21  16  79 N5        30.02F WCI  15

$$




USA.gov is the U.S. government's official web portal to all federal, state and local government web resources and services.